Weather reports worldwide

Advertisment
Gallivare, Sweden (2049): temperature & dewpoint: 08.12.2019 03:00:00 - 14.12.2019 03:00:00 (CET)Gallivare, Sweden (2049): wind speed & gusts: 08.12.2019 03:00:00 - 14.12.2019 03:00:00 (CET)Gallivare, Sweden (2049): wind direction: 08.12.2019 03:00:00 - 14.12.2019 03:00:00 (CET)Gallivare, Sweden (2049): reduced air pressure: 08.12.2019 03:00:00 - 14.12.2019 03:00:00 (CET)Gallivare, Sweden (2049): visibility: 08.12.2019 03:00:00 - 14.12.2019 03:00:00 (CET)Gallivare, Sweden (2049): precipitation: 08.12.2019 03:00:00 - 14.12.2019 03:00:00 (CET)
Date & Time tt [°C] td [°C] ff [km/h] ff [kn] fx [km/h] fx [kn] dd ppp [hPa] vv [km] rr [mm]
14.12.2019 03:00:00 -2,0 -3,6 9 5 24 13 S 998,4 7 0,0
14.12.2019 02:00:00 -1,8 -3,5 8 5 21 11 S 998,1 50 0,0
14.12.2019 01:00:00 -1,6 -3,3 8 4 23 13 SSW 997,6 50 0,0
14.12.2019 00:00:00 -1,6 -3,3 8 4 17 9 S 997,3 50 0,0
13.12.2019 23:00:00 -1,7 -3,7 10 6 24 13 SSW 997,1 50 0,0
13.12.2019 22:00:00 -1,6 -3,5 11 6 27 15 SSW 996,6 50 0,0
13.12.2019 21:00:00 -1,4 -2,7 12 6 24 13 S 996,3 8 0,0
13.12.2019 20:00:00 -1,4 -3,0 8 4 21 11 S 995,8 50 0,0
13.12.2019 19:00:00 -1,3 -2,9 7 4 20 11 S 995,2 50 0,0
13.12.2019 18:00:00 -1,5 -2,9 6 3 13 7 SE 994,8 50 0,0
13.12.2019 17:00:00 -1,3 -2,9 8 4 22 12 SSE 994,5 50 0,0
13.12.2019 16:00:00 -1,2 -2,8 15 8 23 12 S 994,1 50 0,0
13.12.2019 15:00:00 -1,2 -2,9 6 3 16 8 S 993,7 50 0,0
13.12.2019 14:00:00 -1,0 -2,7 8 4 15 8 S 993,2 50 0,0
13.12.2019 13:00:00 -0,4 -2,6 5 3 16 9 S 992,7 50 0,0
13.12.2019 12:00:00 -0,3 -2,0 6 3 21 12 S 992,4 50 0,0
13.12.2019 11:00:00 -0,1 -2,0 8 4 19 11 SSW 991,8 50 0,0
13.12.2019 10:00:00 -0,3 -1,8 3 1 13 7 S 991,7 50 0,0
13.12.2019 09:00:00 -0,3 -1,7 8 5 22 12 S 991,2 50 0,0
13.12.2019 08:00:00 -0,2 -1,6 11 6 21 11 SSW 990,8 50 0,0
13.12.2019 07:00:00 -0,3 -1,7 3 1 18 10 ENE 990,3 43 0,0
13.12.2019 06:00:00 -0,3 -1,4 2 1 16 8 S 990,0 50 0,0
13.12.2019 05:00:00 -0,1 -1,2 8 5 17 9 S 990,1 50 0,0
13.12.2019 04:00:00 -0,3 -1,3 7 4 17 9 S 990,1 50 0,0
13.12.2019 03:00:00 -0,2 -1,3 3 2 13 7 E 990,1 50 0,0
13.12.2019 02:00:00 -0,2 -1,3 5 3 11 6 E 990,3 50 0,0
13.12.2019 01:00:00 -0,3 -1,4 5 3 13 7 E 990,7 50 0,0
13.12.2019 00:00:00 -0,5 -1,6 5 3 13 7 E 991,0 38 -
12.12.2019 23:00:00 -0,7 -1,7 6 4 13 7 E 991,1 22 0,0
12.12.2019 22:00:00 -0,8 -1,9 4 2 16 9 E 991,3 50 0,0
12.12.2019 21:00:00 -0,6 -1,9 5 3 17 9 ESE 991,6 50 0,0
12.12.2019 20:00:00 -0,9 -1,7 5 3 18 10 E 991,7 27 0,0
12.12.2019 19:00:00 -1,1 -1,9 6 3 13 7 E 991,7 50 0,0
12.12.2019 18:00:00 -1,1 -1,8 6 4 13 7 E 991,9 10 -
12.12.2019 17:00:00 -1,1 -2,1 5 3 14 8 ESE 992,4 50 0,0
12.12.2019 16:00:00 -1,2 -2,2 6 3 16 9 SE 992,3 50 -
12.12.2019 15:00:00 -1,3 -2,1 6 3 14 8 SE 992,5 21 0,0
12.12.2019 14:00:00 -1,7 -2,3 8 4 16 8 E 992,7 14 -
12.12.2019 13:00:00 -1,7 -2,3 8 4 13 7 ENE 992,8 2,2 0,1
12.12.2019 12:00:00 -1,8 -2,8 5 3 16 9 E 992,9 13 0,1
12.12.2019 11:00:00 -2,0 -3,0 9 5 16 8 E 993,0 8 0,1
12.12.2019 10:00:00 -2,2 -3,3 7 4 17 9 E 993,4 3,7 0,0
12.12.2019 09:00:00 -2,5 -3,3 7 4 16 9 E 993,2 1,6 0,3
12.12.2019 08:00:00 -2,7 -3,8 10 5 14 8 E 992,8 50 -
12.12.2019 07:00:00 -2,9 -3,9 8 4 17 9 E 993,2 4,9 0,0
12.12.2019 06:00:00 -3,2 -4,2 9 5 16 8 E 992,9 2,6 0,1
12.12.2019 05:00:00 -3,0 -4,4 5 3 18 10 E 992,9 14 -
12.12.2019 04:00:00 -4,5 -5,3 9 5 19 11 S 993,2 4,1 0,0
12.12.2019 03:00:00 -7,0 -8,1 2 1 11 6 ENE 993,5 4,1 -
12.12.2019 02:00:00 -7,2 -8,1 9 5 12 7 NE 993,2 50 0,0
12.12.2019 01:00:00 -5,9 -7,4 3 2 24 13 NNW 992,4 50 0,0
12.12.2019 00:00:00 -2,5 -4,1 10 5 22 12 SSE 991,8 50 0,0
11.12.2019 23:00:00 -4,3 -5,5 7 4 19 10 NNE 991,5 50 0,0
11.12.2019 22:00:00 -3,3 -4,4 11 6 29 16 E 990,6 50 0,0
11.12.2019 21:00:00 -0,5 -3,0 16 9 42 23 WSW 989,6 18 0,0
11.12.2019 20:00:00 -0,9 -2,9 21 11 36 19 SW 988,6 19 0,0
11.12.2019 19:00:00 -2,7 -3,7 5 3 17 9 NE 987,8 50 0,0
11.12.2019 18:00:00 -1,8 -3,1 10 5 25 13 W 986,3 50 0,0
11.12.2019 17:00:00 -1,5 -2,5 5 3 27 15 W 985,5 50 0,0
11.12.2019 16:00:00 -1,5 -2,1 15 8 29 16 SW 985,0 1,6 0,5
11.12.2019 15:00:00 -1,8 -2,4 14 8 29 15 S 984,7 0,7 0,5
11.12.2019 14:00:00 -2,0 -2,6 12 6 26 14 S 984,8 1,6 0,2
11.12.2019 13:00:00 -2,4 -3,0 9 5 20 11 SSE 984,8 1,7 0,8
11.12.2019 12:00:00 -2,8 -3,3 10 5 28 15 SSE 985,7 1,3 0,6
11.12.2019 11:00:00 -3,0 -3,5 10 5 26 14 SSE 986,5 1,6 0,6
11.12.2019 10:00:00 -3,3 -3,9 10 6 32 17 SSE 987,8 1,8 1,0
11.12.2019 09:00:00 -3,5 -4,0 12 6 29 16 SSE 988,7 0,8 1,3
11.12.2019 08:00:00 -6,4 -7,2 8 5 16 9 ESE 990,4 0,8 1,6
11.12.2019 07:00:00 -10,1 -11,4 8 4 18 10 E 992,5 0,8 1,8
11.12.2019 06:00:00 -12,7 -14,1 8 5 19 11 ESE 994,3 0,7 1,8
11.12.2019 05:00:00 -15,2 -17,0 9 5 22 12 SE 996,3 0,6 1,2
11.12.2019 04:00:00 -16,4 -18,4 12 6 24 13 ESE 998,4 0,5 0,9
11.12.2019 03:00:00 -16,3 -18,2 15 8 22 12 E 1000,4 1,3 0,4
11.12.2019 02:00:00 -15,7 -17,6 12 6 19 10 E 1002,2 50 0,0
11.12.2019 01:00:00 -17,6 -19,6 9 5 15 8 E 1003,1 50 0,0
11.12.2019 00:00:00 -17,9 -19,8 6 3 14 7 E 1004,2 46 0,0
10.12.2019 23:00:00 -23,3 -25,8 3 2 7 4 NNE 1006,1 50 0,0
10.12.2019 22:00:00 -23,9 -26,7 0 0 5 3 N 1007,2 50 0,0
10.12.2019 21:00:00 -24,0 -26,6 2 1 8 4 SW 1007,8 10 0,0
10.12.2019 20:00:00 -25,5 -28,2 2 1 5 3 W 1008,0 10 0,0
10.12.2019 19:00:00 -25,6 -28,3 2 1 6 4 S 1008,3 41 0,0
10.12.2019 18:00:00 -25,7 -28,5 3 1 7 4 WSW 1008,8 26 -
10.12.2019 17:00:00 -23,7 -26,4 4 2 10 5 WSW 1008,9 2,7 0,0
10.12.2019 16:00:00 -23,1 -25,6 5 3 14 8 W 1008,9 40 -
10.12.2019 15:00:00 -22,1 -24,5 8 5 13 7 W 1008,2 50 0,0
10.12.2019 14:00:00 -22,0 -24,4 5 3 11 6 WSW 1008,0 50 0,0
10.12.2019 13:00:00 -21,2 -23,6 8 4 12 6 W 1007,3 50 0,0
10.12.2019 12:00:00 -20,5 -22,8 6 3 15 8 WSW 1006,9 50 0,0
10.12.2019 11:00:00 -19,3 -21,5 9 5 14 8 W 1006,2 50 0,0
10.12.2019 10:00:00 -20,7 -23,0 8 5 14 8 W 1005,7 - 0,1
10.12.2019 09:00:00 -21,0 -23,4 5 3 15 8 SW 1005,0 39 0,1
10.12.2019 08:00:00 -18,3 -20,5 9 5 12 7 W 1003,9 50 0,0
10.12.2019 07:00:00 -17,6 -20,1 6 3 13 7 W 1002,8 50 0,0
10.12.2019 06:00:00 -14,1 -17,4 8 5 19 10 W 1001,1 50 0,0
10.12.2019 05:00:00 -11,2 -13,8 12 6 23 13 WNW 1000,2 50 0,0
10.12.2019 04:00:00 -13,4 -15,0 11 6 17 9 WNW 999,2 50 0,0
10.12.2019 03:00:00 -13,2 -15,3 9 5 21 11 W 998,2 50 0,0
10.12.2019 02:00:00 -11,4 -13,9 13 7 22 12 W 996,8 50 0,0
10.12.2019 01:00:00 -11,6 -14,1 10 6 19 10 W 995,4 50 0,0
10.12.2019 00:00:00 -11,1 -13,6 11 6 18 10 W 994,1 50 0,0
09.12.2019 23:00:00 -14,1 -15,5 8 5 16 9 W 993,3 50 0,0
09.12.2019 22:00:00 -19,7 -22,1 9 5 14 7 W 992,5 50 0,0
09.12.2019 21:00:00 -16,3 -18,1 9 5 16 9 W 990,8 10 0,0
09.12.2019 20:00:00 -16,0 -17,5 8 5 14 8 WNW 989,7 30 0,0
09.12.2019 19:00:00 -14,7 -16,8 8 4 17 9 WNW 988,4 50 0,0
09.12.2019 18:00:00 -12,5 -14,5 13 7 18 10 W 987,4 37 0,0
09.12.2019 17:00:00 -11,9 -14,2 10 5 18 10 W 986,1 50 -
09.12.2019 16:00:00 -10,9 -13,0 11 6 18 10 W 985,2 50 0,0
09.12.2019 15:00:00 -9,5 -11,4 6 3 14 7 WNW 983,9 50 0,0
09.12.2019 14:00:00 -9,2 -11,3 5 3 15 8 W 982,9 50 0,0
09.12.2019 13:00:00 -9,8 -11,6 8 5 15 8 WNW 982,0 46 0,0
09.12.2019 12:00:00 -9,7 -11,6 4 2 11 6 WNW 981,2 50 0,0
09.12.2019 11:00:00 -8,0 -10,2 5 3 17 9 N 980,4 18 0,0
09.12.2019 10:00:00 -7,8 -9,4 7 4 21 11 NE 979,6 23 0,1
09.12.2019 09:00:00 -8,0 -9,5 8 4 22 12 NNE 978,9 6 0,1
09.12.2019 08:00:00 -8,1 -9,4 8 5 16 9 NNE 978,1 4,0 0,1
09.12.2019 07:00:00 -7,9 -9,3 6 4 16 9 NE 977,4 6 0,2
09.12.2019 06:00:00 -7,6 -8,8 4 2 14 8 NE 977,0 2,5 0,4
09.12.2019 05:00:00 -7,5 -8,7 8 4 19 10 NE 976,8 2,5 0,2
09.12.2019 04:00:00 -7,3 -8,4 6 4 15 8 ENE 976,8 2,7 0,2
09.12.2019 03:00:00 -7,3 -8,4 6 3 14 8 E 976,9 2,0 0,2
09.12.2019 02:00:00 -7,2 -8,3 8 4 15 8 ENE 976,9 2,6 0,2
09.12.2019 01:00:00 -7,0 -8,1 6 3 15 8 E 977,1 3,5 0,2
09.12.2019 00:00:00 -6,7 -7,6 8 5 15 8 ENE 977,3 2,7 0,1
08.12.2019 23:00:00 -6,5 -7,4 7 4 14 8 E 977,8 48 0,0
08.12.2019 22:00:00 -6,5 -7,5 4 2 11 6 E 978,1 50 0,0
08.12.2019 21:00:00 -6,5 -7,4 4 2 9 5 E 978,2 47 0,0
08.12.2019 20:00:00 -6,4 -7,3 3 1 9 5 ENE 978,6 3,5 0,0
08.12.2019 19:00:00 -6,3 -7,2 4 2 10 6 E 978,8 12 0,0
08.12.2019 18:00:00 -6,3 -7,2 5 3 11 6 NE 978,8 30 0,0
08.12.2019 17:00:00 -9,5 -10,7 2 1 8 4 NNW 979,6 15 0,0
08.12.2019 16:00:00 -10,1 -11,4 0 0 7 4 N 980,0 50 0,0
08.12.2019 15:00:00 -9,8 -11,1 4 2 9 5 W 980,5 50 0,0
08.12.2019 14:00:00 -10,1 -11,4 5 3 8 5 W 980,4 30 0,0
08.12.2019 13:00:00 -9,6 -10,8 4 2 8 4 W 980,5 8 0,0
08.12.2019 12:00:00 -9,3 -10,5 3 2 11 6 W 980,5 50 0,0
08.12.2019 11:00:00 -9,3 -10,5 6 3 11 6 WNW 980,4 50 0,0
08.12.2019 10:00:00 -12,2 -13,6 6 3 10 6 NW 980,7 50 0,0
08.12.2019 09:00:00 -10,8 -12,5 7 4 13 7 W 980,9 35 0,0
08.12.2019 08:00:00 -12,1 -13,7 7 4 11 6 WNW 980,8 50 0,0
08.12.2019 07:00:00 -15,1 -17,1 5 3 11 6 WNW 981,2 50 0,0
08.12.2019 06:00:00 -14,2 -16,0 6 3 12 7 WNW 980,9 45 0,0
08.12.2019 05:00:00 -11,3 -12,7 6 3 13 7 WNW 980,7 50 0,0
08.12.2019 04:00:00 -10,8 -12,1 6 3 10 5 WNW 980,5 50 0,0
08.12.2019 03:00:00 -11,2 -12,7 6 3 11 6 WNW 980,6 50 0,0

tt = temperature
td = dewpoint
ff = wind speed
fx = gusts
dd = wind direction
ppp = reduced air pressure
vv = visibility
rr = precipitation

Next stations